Zurück zum Katalog

ASTRA 1P

SES 24

AktivKommunikationGEO
NORAD 60086·PAYLOAD·🇱🇺 Luxembourg

Gestartet Jun 20, 2024 von Cape Canaveral Space Force Station

Loading…

TLE

AktuellSource: CelesTrak SupGP

Epoche: Sep 14, 2026, 23:44 UTC

1 60086C 24115A   26257.98958333  .00000086  00000+0  00000+0 0  2572
2 60086   0.0618 342.5986 0001867 243.3701 143.4448  1.00272335    18

Verfolge ASTRA 1P in Echtzeit mit AllMySat

Download on the App Store